Location: Praha
(50.0830°N, 14.4670°E)
Time: 14:16:44
(UTC+02:00)

ISS - Pass Details

Date: 06 May 2019
Orbit: 408 x 410 km, 51.6° (Epoch: 18 April)

Event Time Altitude Azimuth Distance (km) Brightness Sun altitude
Exits shadow 03:30:55 30° 177° (S) 759 -2.9 -15.6°
Maximum altitude 03:31:37 34° 149° (SSE) 698 -2.9 -15.5°
Drops below altitude 10° 03:34:39 10° 82° (E) 1,475 -0.3 -15.2°
Sets 03:36:50 0° 73° (ENE) 2,339 1.0 -15.0°
